FW7749 Weather Reports


time (UTC)temp
C
wind
direction
speed
KPH
gust
KPH
rain 1hr
cm
rain 24hr
cm
rain mn
cm
humidity
%
barometer
mb
20260503230023 18 0.0 0.0 0.00 0.00 0.00 36 1018.3
20260503225019 18 0.0 0.0 0.00 0.00 0.00 35 1018.3
20260503224028 18 0.0 0.0 0.00 0.00 0.00 33 1018.6
20260503223022 19 0.0 0.0 0.00 0.00 0.00 34 1018.6
20260503222039 19 0.0 0.0 0.00 0.00 0.00 35 1018.8
20260503221027 19 0.0 0.0 0.00 0.00 0.00 34 1018.9
20260503220019 19 0.0 0.0 0.00 0.00 0.00 34 1019.1
20260503215040 20 0.0 0.0 0.00 0.00 0.00 34 1019.2
20260503214118 19 0.0 0.0 0.00 0.00 0.00 35 1019.2
20260503213019 20 0.0 0.0 0.00 0.00 0.00 35 1019.3
20260503212030 19 0.0 0.0 0.00 0.00 0.00 35 1019.3
20260503211019 19 0.0 0.0 0.00 0.00 0.00 34 1019.6
20260503210019 19 0.0 0.0 0.00 0.00 0.00 35 1019.5
20260503205029 19 0.0 0.0 0.00 0.00 0.00 34 1019.6
20260503204039 18 0.0 0.0 0.00 0.00 0.00 33 1019.8
20260503203034 19 0.0 0.0 0.00 0.00 0.00 33 1020.1
20260503202119 19 0.0 0.0 0.00 0.00 0.00 34 1020.3
20260503201019 18 314 1.6 1.6 0.00 0.00 0.00 34 1020.3
20260503200033 18 353 1.6 4.8 0.00 0.00 0.00 34 1020.5
20260503195038 17 345 3.2 3.2 0.00 0.00 0.00 34 1020.9
20260503194100 18 0.0 0.0 0.00 0.00 0.00 35 1021.0
20260503193052 17 0.0 0.0 0.00 0.00 0.00 34 1021.0
20260503192018 17 0.0 0.0 0.00 0.00 0.00 35 1021.2
20260503191020 17 0.0 0.0 0.00 0.00 0.00 37 1021.5
20260503190019 17 0.0 0.0 0.00 0.00 0.00 37 1021.5
20260503185019 16 0.0 0.0 0.00 0.00 0.00 36 1021.6
20260503184018 16 0.0 0.0 0.00 0.00 0.00 37 1021.8
20260503183018 16 0.0 0.0 0.00 0.00 0.00 39 1021.7
20260503182023 16 0.0 0.0 0.00 0.00 0.00 40 1021.8
20260503181119 15 0.0 0.0 0.00 0.00 0.00 39 1022.0
20260503180019 16 0.0 0.0 0.00 0.00 0.00 41 1022.1
20260503175022 15 0.0 0.0 0.00 0.00 0.00 41 1022.3
20260503174019 15 0.0 0.0 0.00 0.00 0.00 40 1022.5
20260503173041 15 0.0 0.0 0.00 0.00 0.00 39 1022.6
20260503172021 15 0.0 0.0 0.00 0.00 0.00 41 1022.8
20260503171019 15 0.0 4.8 0.00 0.00 0.00 41 1022.8
20260503150110 11 0.0 0.0 0.00 0.00 0.00 46 1024.0
20260503131038 7 0.0 0.0 0.00 0.00 0.00 69 1023.6
20260503090111 3 0.0 0.0 0.00 0.00 0.00 72 1021.7
20260503081120 4 0.0 0.0 0.00 0.00 0.00 71 1021.3
20260503080117 4 0.0 0.0 0.00 0.00 0.00 68 1021.1
20260503072118 6 0.0 0.0 0.00 0.00 0.00 65 1020.9
20260503071056 7 0.0 0.0 0.00 0.00 0.00 64 1020.7
20260503060121 7 0.0 0.0 0.00 0.00 0.00 68 1020.5
20260503055042 8 0.0 0.0 0.00 0.00 0.00 64 1020.6
20260503054020 8 0.0 0.0 0.00 0.00 0.00 63 1020.4
20260503053103 9 0.0 0.0 0.00 0.00 0.00 62 1020.6
20260503052025 9 0.0 0.0 0.00 0.00 0.00 58 1020.6
20260503051019 10 0.0 0.0 0.00 0.00 0.00 57 1020.6
20260503050045 9 0.0 0.0 0.00 0.00 0.00 57 1020.6
20260503045023 9 0.0 0.0 0.00 0.00 0.00 56 1020.4
20260503044123 9 0.0 0.0 0.00 0.00 0.00 55 1020.5
20260503043028 9 0.0 0.0 0.00 0.00 0.00 56 1020.5
20260503042022 9 0.0 0.0 0.00 0.00 0.00 54 1020.3
20260503041106 10 0.0 0.0 0.00 0.00 0.00 52 1020.1
20260503040047 10 0.0 0.0 0.00 0.00 0.00 52 1020.0
20260503035120 10 0.0 0.0 0.00 0.00 0.00 52 1020.1
20260503034111 11 0.0 0.0 0.00 0.00 0.00 52 1020.2
20260503033025 11 0.0 0.0 0.00 0.00 0.00 51 1020.0
20260503032129 11 0.0 0.0 0.00 0.00 0.00 52 1020.0
20260503031030 11 0.0 0.0 0.00 0.00 0.00 52 1020.0
20260503030025 11 0.0 0.0 0.00 0.00 0.00 53 1019.8
20260503025051 11 0.0 0.0 0.00 0.00 0.00 52 1020.0
20260503024029 11 0.0 0.0 0.00 0.00 0.00 53 1019.7
20260503023129 11 0.0 0.0 0.00 0.00 0.00 53 1019.7
20260503022034 11 0.0 0.0 0.00 0.00 0.00 50 1019.7
20260503021027 11 0.0 0.0 0.00 0.00 0.00 50 1019.6
20260503020115 11 0.0 0.0 0.00 0.00 0.00 50 1019.3
20260503015052 11 0.0 0.0 0.00 0.00 0.00 49 1019.2
20260503014121 11 0.0 0.0 0.00 0.00 0.00 46 1019.1
20260503013054 11 0.0 0.0 0.00 0.00 0.00 46 1018.9
20260503012032 11 0.0 0.0 0.00 0.00 0.00 44 1018.7
20260503011114 12 0.0 0.0 0.00 0.00 0.00 43 1018.8
20260503010040 12 0.0 0.0 0.00 0.00 0.00 43 1018.6
20260503005138 12 0.0 0.0 0.00 0.00 0.00 43 1018.3
20260503004057 13 0.0 0.0 0.00 0.00 0.00 42 1018.2
20260503003034 13 0.0 0.0 0.00 0.00 0.00 42 1018.0
20260503002118 13 0.0 0.0 0.00 0.00 0.00 41 1017.9
20260503001056 13 0.0 0.0 0.00 0.00 0.00 41 1017.7
20260503000036 14 0.0 0.0 0.00 0.00 0.00 40 1017.6
20260502235100 14 0.0 0.0 0.00 0.00 0.00 40 1017.4
20260502234022 15 0.0 0.0 0.00 0.00 0.00 40 1017.4
20260502233122 14 137 3.2 8.0 0.00 0.00 0.00 40 1017.2
20260502232043 15 195 1.6 3.2 0.00 0.00 0.00 39 1017.3
20260502231020 15 0.0 0.0 0.00 0.00 0.00 39 1017.3